Home > Time Zones > World Clock > Weather > Italy > Turin > Past weeks

Flag for Italy Weather past 2 weeks in Turin, Italy

Now
64 °F

Passing clouds.


Feels Like: 64 °F
Forecast: 57 / 74 °F
Wind: No wind

Location: Torino / Bric Della Croce


UV Index: 5 (Moderate)

Visibility: N/A


Pressure: 30.01 "Hg

Humidity: 56%

Dew point: 48 °F

Location of TurinLocation

Historic Weather in Turin

°F

Turin temperature yesterday

Maximum temperature yesterday: 57 °F (at 2:55 PM)
Minimum temperature yesterday: 48 °F (at 12:55 AM)
Average temperature yesterday: 53 °F

Past Weeks' High & Low Weather Summary

 TemperatureHumidityPressure
High68 °F (Apr 14, 3:55 PM)100% (Apr 8, 11:55 PM)30.15 "Hg (Apr 8, 11:55 PM)
Low39 °F (Apr 19, 4:55 AM)15% (Apr 15, 6:55 PM)29.59 "Hg (Apr 19, 2:55 AM)
Average55 °F71%29.93 "Hg
* Reported Apr 8 4:55 PM — Apr 23 4:55 PM, Turin, Weather by CustomWeather, © 2014

Note: Actual official high and low records may vary slightly from our data, if they occured in-between our weather recording intervals... More about our weather records

Advertising

Historic Weather Conditions — Data for Previous 24 hours

 ConditionsComfort  
Time TempWeatherWind HumidityBarometerVisibility
4:55 PM
Apr 23
64 °FPassing clouds.No wind56%30.01 "HgN/A
3:55 PM64 °FPassing clouds.3 mph60%30.01 "HgN/A
2:55 PM63 °FPassing clouds.6 mph68%30.01 "HgN/A
1:55 PM61 °FPassing clouds.No wind68%30.04 "HgN/A
12:55 PM59 °FPassing clouds.No wind77%30.04 "HgN/A
11:55 AM57 °FSunny.3 mph77%30.04 "Hg10 mi
10:55 AM57 °FSunny.No wind72%30.04 "Hg10 mi
9:55 AM55 °FSunny.No wind72%30.01 "Hg10 mi
8:55 AM55 °FSunny.No wind72%30.01 "Hg10 mi
7:55 AM54 °FSunny.No wind77%30.01 "Hg10 mi
6:55 AM54 °FClear.No wind77%30.01 "Hg10 mi
5:55 AM54 °FClear.No wind77%30.01 "Hg10 mi
4:55 AM55 °FClear.No wind72%30.01 "Hg10 mi
3:55 AM55 °FClear.No wind77%30.01 "Hg10 mi
2:55 AM55 °FClear.2 mph77%30.01 "Hg10 mi
1:55 AM55 °FClear.No wind77%30.01 "Hg10 mi
12:55 AM55 °FClear.No wind77%29.98 "Hg10 mi
11:55 PM
Apr 22
55 °FClear.2 mph77%29.98 "Hg10 mi
10:55 PM55 °FClear.No wind77%29.98 "Hg10 mi
9:55 PM55 °FClear.No wind77%29.95 "Hg10 mi
8:55 PM55 °FSunny.2 mph72%29.95 "Hg10 mi
7:55 PM57 °FPassing clouds.2 mph72%29.92 "HgN/A
6:55 PM57 °FScattered clouds.No wind77%29.92 "HgN/A
Weather by CustomWeather, © 2014

See weather overview